Location: LDNL
(36.4545°S, 141.6685°E)
Time: 23:44:44
(UTC+10:00)

X-37B - Pass Details

Date: 04 July 2022
Orbit: 328 x 343 km, 45.0° (Epoch: 12 August)

Event Time Altitude Azimuth Distance (km) Brightness Sun altitude
Exits shadow 06:40:15 13° 304° (NW) 1,161 2.6 -12.9°
Maximum altitude 06:42:49 80° 31° (NNE) 358 0.4 -12.4°
Drops below altitude 10° 06:45:46 10° 118° (ESE) 1,313 3.9 -11.8°
Sets 06:47:48 0° 119° (ESE) 2,157 5.0 -11.5°
